Location: Newark
(52.5667°N, 8.8000°W)
Time: 01:11:42
(UTC+00:00)

N. Korean satellite - Pass Details

Date: 26 January 2020
Orbit: 456 x 505 km, 97.2° (Epoch: 27 February)

Event Time Altitude Azimuth Distance (km) Brightness Sun altitude
Rises 05:16:21 0° 30° (NNE) 2,540 10.7 -28.7°
Reaches altitude 10° 05:19:25 10° 60° (ENE) 1,667 10.1 -28.2°
Maximum altitude 05:21:05 13° 88° (E) 1,505 9.9 -27.9°
Drops below altitude 10° 05:22:46 10° 116° (ESE) 1,673 10.0 -27.7°
Sets 05:25:51 0° 146° (SE) 2,559 10.6 -27.2°
